OpenBCM V1.13 (Linux)

Packet Radio Mailbox

DB0FHN

[JN59NK Nuernberg]

 Login: GUEST





  
LU9DCE > KEP      01.06.19 20:34l 245 Lines 12115 Bytes #999 (0) @ WW
BID : 25870_LU9DCE
Read: DJ6UX DF7EAV GUEST
Subj: TLE 01 06
Path: DB0FHN<DB0BLO<DB0ERF<DB0RES<IR2UBX<IZ3LSV<IW0QNL<JH4XSY<N3HYM<LU9DCE
Sent: 190601/1801Z 25870@LU9DCE.TOR.BA.ARG.SOAM LinBPQ6.0.18

            __    _  _  ___  ____   ___  ____    ____  ____  ____
           (  )  / )( \/ _ \(    \ / __)(  __)  (  _ \(  _ \/ ___)
           / (_/\) \/ (\__  )) D (( (__  ) _)    ) _ ( ) _ (\___ \
           \____/\____/(___/(____/ \___)(____)  (____/(____/(____/
               ESTACION DE PACKET RADIO - BUENOS AIRES (GF05OM)
                   BOLETINES INFORMATIVOS PROGRAMADOS (BIP)
                  SLACKWARE LINUX - HELLOCODELINUX@GMAIL.COM

+----------------------------------------------------------------------------+
OSCAR 7
1  7530U 74089B   19152.56105978 -.00000047  00000-0 -13275-4 0  9997
2  7530 101.7425 120.3984 0012425  22.0781  97.8171 12.53638294 38375
OSCAR 11 (UoSAT 2)
1 14781U 84021B   19152.02347237  .00000042  00000-0  11332-4 0  9992
2 14781  97.6118 177.5765 0009103  27.6327 332.5369 14.83087248896147
OSCAR 19 (LUSAT)
1 20442U 90005G   19151.44423358 -.00000022 +00000-0 +84177-5 0  9993
2 20442 098.6478 093.4758 0011284 198.0549 162.0235 14.32925889533702
EYESAT A
1 22825U 93061C   19152.00826268 -.00000007  00000-0  15227-4 0  9997
2 22825  98.9024 140.2425 0009332  54.8656 305.3398 14.30059429339421
ITAMSAT
1 22826U 93061D   19152.50370183 -.00000002  00000-0  17210-4 0  9992
2 22826  98.8964 140.7429 0009698  43.2711 316.9231 14.30393033339697
RADIO ROSTO
1 23439U 94085A   19151.42324814 -.00000027 +00000-0 +43940-3 0  9995
2 23439 064.8133 145.6672 0146355 116.7977 244.8001 11.27568114005832
JAS 2
1 24278U 96046B   19151.43312001 -.00000029  00000-0  92623-5 0  9998
2 24278  98.5344 307.3226 0349338 287.4324  68.8911 13.53091268125336
TECHSAT 1B
1 25397U 98043D   19151.41674513 -.00000029  00000-0  66754-5 0  9993
2 25397  98.6879  91.7832 0002443  88.9145 271.2313 14.23665858 85272
ISS (ZARYA)
1 25544U 98067A   19152.57537037  .00000568  00000-0  17384-4 0  9991
2 25544  51.6438  78.7759 0007664   0.7687 342.5841 15.51163082172822
PCSAT
1 26931U 01043C   19152.02210592 -.00000045  00000-0  14724-4 0  9990
2 26931  67.0526  49.2768 0006469 279.7880  80.2490 14.30543095922449
SAUDISAT 1C
1 27607U 02058C   19152.19632191 -.00000038  00000-0  15553-4 0  9992
2 27607  64.5547 103.0854 0081886 259.8996  99.2861 14.75549192884456
CUTE-1
1 27844U 03031E   19152.48653534  .00000043  00000-0  38913-4 0  9993
2 27844  98.6839 160.9573 0011119  82.3051 277.9389 14.22178756825848
CUBESAT XI 4
1 27848U 03031J   19152.47377318  .00000033  00000-0  34656-4 0  9998
2 27848  98.6917 161.4410 0011010  92.3861 267.8578 14.21773639825696
MOZHAYETS 4
1 27939U 03042A   19152.24339906  .00000148  00000-0  35001-4 0  9999
2 27939  98.0372 288.4022 0014075 120.0649 240.1937 14.66782339837986
CUBESAT XI 5
1 28895U 05043F   19152.34941376  .00000084  00000-0  24971-4 0  9998
2 28895  97.9566 295.6777 0017813  50.0394 310.2370 14.63663978724956
CUTE-1.7+APD II
1 32785U 08021C   19152.47408506  .00000175  00000-0  24488-4 0  9991
2 32785  97.5492 153.0009 0012137 326.3072  33.7373 14.88303542601122
DELFI C3
1 32789U 08021G   19152.02156475  .00001417  00000-0  98784-4 0  9991
2 32789  97.4655 202.2195 0012386 178.1947 181.9328 15.06913599604308
SEEDS
1 32791U 08021J   19152.52149647  .00000166  00000-0  22232-4 0  9997
2 32791  97.5279 159.0017 0011884 298.7551  61.2473 14.90810425601559
YUBELEINY
1 32953U 08025A   19152.26004589  .00000020  00000-0  75656-4 0  9994
2 32953  82.5005 155.6064 0019449 163.2543 196.9188 12.43089730500141
PRISM (HITOMI)
1 33493U 09002B   19152.21258253  .00000126  00000-0  16651-4 0  9991
2 33493  98.1232  72.5042 0013560 239.3319 120.6565 14.96640730562530
KKS-1 (KISEKI)
1 33499U 09002H   19152.51703767  .00000070  00000-0  18336-4 0  9995
2 33499  98.3513 350.6766 0007882 260.3107  99.7211 14.75437452556698
SWISSCUBE
1 35932U 09051B   19151.45793475 +.00000101 +00000-0 +33934-4 0  9996
2 35932 098.5862 316.8993 0006944 213.4367 146.6392 14.56279463514086
BEESAT
1 35933U 09051C   19152.01166005  .00000088  00000-0  30980-4 0  9995
2 35933  98.5891 319.2191 0004939 223.9083 136.1722 14.56369517514316
ITUPSAT 1
1 35935U 09051E   19151.44044891  .00000065  00000-0  26063-4 0  9993
2 35935  98.6001 318.8704 0007245 225.5299 134.5305 14.55530036513983
XIWANG-1 (HOPE-1)
1 36122U 09072B   19151.72264276 -.00000029 +00000-0 +34852-4 0  9993
2 36122 100.0721 154.9476 0008435 030.1182 330.0424 13.16349809454517
TISAT 1
1 36799U 10035E   19151.36243234 +.00000415 +00000-0 +48004-4 0  9997
2 36799 098.1534 302.9097 0013208 141.4095 218.8069 14.91091106481834
JUGNU
1 37839U 11058B   19151.17181646 +.00000287 +00000-0 +11344-4 0  9990
2 37839 019.9608 087.0789 0019202 123.0976 009.7375 14.12651241394527
SRMSAT
1 37841U 11058D   19151.33650299 +.00000298 +00000-0 +18862-4 0  9990
2 37841 019.9707 142.4775 0011798 356.0976 140.1696 14.10632643394003
M-CUBED/EXP-1 PRIME
1 37855U 11061F   19151.45511484  .00000695  00000-0  42730-4 0  9996
2 37855 101.7170  37.6933 0173761 130.8307 230.8119 15.05369712414030
HORYU 2
1 38340U 12025D   19151.06493167 +.00000144 +00000-0 +29087-4 0  9990
2 38340 098.3304 189.0953 0011628 176.7961 183.3324 14.75712152368003
STRAND 1
1 39090U 13009E   19152.49499316  .00000032  00000-0  26552-4 0  9996
2 39090  98.4900 358.7415 0008888 347.9925  12.1047 14.35084926327927
SOMP
1 39134U 13015E   19152.18922190  .00000985  00000-0  54410-4 0  9990
2 39134  64.8640  77.1398 0028994 307.2083  52.6398 15.20115910337933
BEESAT 3
1 39135U 13015F   19152.21217369  .00000880  00000-0  53512-4 0  9996
2 39135  64.8678  95.1185 0018464 324.4998  35.4898 15.17427135337593
BEESAT 2
1 39136U 13015G   19152.04481085  .00000615  00000-0  41001-4 0  9992
2 39136  64.8689  99.4277 0018483 304.8743  55.0644 15.16860247337496
CUBEBUG 1
1 39153U 13018D   19151.98883333  .00000120  00000-0  22621-4 0  9996
2 39153  97.9770 250.2143 0015570 254.4164 105.5330 14.80560188329195
ZACUBE
1 39417U 13066B   19152.20748163  .00000163  00000-0  26673-4 0  9997
2 39417  97.5630 166.6915 0060602  91.3391 269.4766 14.81106862298455
TRITON 1
1 39427U 13066M   19152.48119816  .00000143  00000-0  30914-4 0  9996
2 39427  97.6748 130.9241 0112755 220.0302 139.2554 14.67832588295814
GOMX 1
1 39430U 13066Q   19152.13726458  .00000176  00000-0  41312-4 0  9998
2 39430  97.7447 109.8464 0150324 310.0562  48.7544 14.59245644294048
HUMSAT D
1 39433U 13066T   19151.37413925 +.00000185 +00000-0 +23425-4 0  9993
2 39433 097.5550 199.6265 0030778 005.0622 355.0903 14.92175889299169
CUBEBUG 2
1 39440U 13066AA  19152.53018983  .00000153  00000-0  28119-4 0  9995
2 39440  97.6017 151.9815 0081286 139.8548 220.8707 14.75845628297447
FUNCUBE 1
1 39444U 13066AE  19152.48777722  .00000218  00000-0  33040-4 0  9997
2 39444  97.5611 168.8844 0059734  84.5939 276.2085 14.81923832297380
UWE-3
1 39446U 13066AG  19152.02228702  .00000173  00000-0  29381-4 0  9991
2 39446  97.5812 158.5045 0071482 117.1278 243.7248 14.78379677296654
SPROUT
1 39770U 14029E   19152.20705579  .00000653  00000-0  78453-4 0  9990
2 39770  97.8824 255.6157 0009549 135.2085 224.9904 14.87319484272233
UNISAT 6
1 40012U 14033C   19152.50079362  .00000143  00000-0  28604-4 0  9990
2 40012  97.7600  19.8516 0058948 152.0186 208.4214 14.73970239266151
DUCHIFAT 1
1 40021U 14033M   19151.35253284  .00000301  00000-0  36606-4 0  9996
2 40021  97.9241  75.8856 0014305 108.0902 252.1876 14.90613369268811
QB50P1
1 40025U 14033R   19151.42094368 +.00000167 +00000-0 +23732-4 0  9990
2 40025 097.9067 071.1339 0013758 116.3114 243.9517 14.88931650268097
CHUBUSAT 1
1 40300U 14070C   19152.16672631  .00000596  00000-0  28905-4 0  9997
2 40300  97.3264 226.7907 0020867 114.4304 301.3527 15.22060860253352
NUDT-PHONESAT
1 40900U 15049B   19152.56277508  .00001783  00000-0  79407-4 0  9990
2 40900  97.4377 162.0666 0011112 243.1393 235.4864 15.22715855205055
ZDPS 2A
1 40901U 15049C   19152.53948513  .00000861  00000-0  46010-4 0  9999
2 40901  97.4593 158.6121 0011724 263.4109 214.1123 15.17695599204633
ZDPS 2B
1 40902U 15049D   19152.56235192  .00000892  00000-0  47809-4 0  9996
2 40902  97.4541 156.1668 0011717 260.0241 216.0315 15.17498214204615
XW-2A
1 40903U 15049E   19152.58579411  .00001776  00000-0  43915-4 0  9990
2 40903  97.3399 195.2524 0012803 200.5960 283.8705 15.41780131207612
KAITUO 1A
1 40904U 15049F   19152.56885697  .00000142  00000-0  11037-4 0  9991
2 40904  97.4664 154.8717 0012928 268.9132 206.7259 15.15344819204403
OBJECT G
1 40905U 15049G   19152.57098667  .00000073  00000-0  75584-5 0  9997
2 40905  97.4703 152.4501 0013978 262.1286 213.3725 15.14274004204280
XW-2C
1 40906U 15049H   19152.57311604  .00000286  00000-0  18518-4 0  9996
2 40906  97.4672 154.9354 0013168 258.8181 215.6222 15.15648738204407
XW-2D
1 40907U 15049J   19152.55355436  .00000565  00000-0  33001-4 0  9990
2 40907  97.4651 154.5935 0012381 255.5942 222.7513 15.15835880204410
LILACSAT 2
1 40908U 15049K   19152.54430796  .00000552  00000-0  34170-4 0  9997
2 40908  97.4782 153.4690 0014314 262.1794 214.4132 15.13788594204219
XW-2F
1 40910U 15049M   19152.52800944  .00000984  00000-0  52748-4 0  9994
2 40910  97.4620 156.5139 0013094 247.5576 211.1735 15.17256771204410
XW-2B
1 40911U 15049N   19152.58494941  .00000495  00000-0  29403-4 0  9996
2 40911  97.4672 155.2694 0012457 256.7088 218.9949 15.15766774204310
KAITUO 1B
1 40912U 15049P   19152.58852289  .00000909  00000-0  45924-4 0  9996
2 40912  97.4502 160.1653 0013577 228.5632 249.1239 15.19560886204711
TIANWANG 1C (TW-1C)
1 40926U 15051B   19152.41693943  .00011629  00000-0  17206-3 0  9998
2 40926  97.1378 198.6163 0009951  80.5582  45.0630 15.55392662207476
